Location: Marcé
(47.5801°N, 0.3280°W)
Time: 18:45:26
(UTC+01:00)

Vanguard 1 - All Passes

Search period start: 30 November 2021 00:00
Search period end: 10 December 2021 00:00
Orbit: 653 x 3830 km, 34.3° (Epoch: 29 November)

Date Brightness Start Highest point End Pass type
(mag) Time Alt. Az. Time Alt. Az. Time Alt. Az.
30 Nov - 00:11:28 10° SSW 00:29:48 32° SE 00:46:41 10° E visible
30 Nov - 02:31:57 10° SW 02:53:44 50° SSE 03:09:59 10° E visible
30 Nov - 04:57:07 10° WSW 05:17:36 51° SSW 05:30:23 10° ESE visible
30 Nov - 07:24:41 10° W 07:38:55 30° SW 07:47:59 10° SSE visible
30 Nov - 22:17:45 10° SSE 22:28:14 15° SE 22:38:58 10° E visible
01 Dec - 00:30:55 10° SSW 00:50:28 38° SSE 01:08:14 10° E visible
01 Dec - 02:52:39 10° WSW 03:14:45 53° S 03:30:53 10° ESE visible
01 Dec - 05:18:26 10° W 05:38:24 48° SSW 05:50:53 10° SE visible
01 Dec - 07:46:36 10° W 07:59:07 25° SW 08:07:32 10° S visible
01 Dec - 22:34:34 10° S 22:48:26 21° SE 23:02:48 10° E visible
02 Dec - 00:50:47 10° SW 01:11:14 43° SSE 01:29:34 10° E visible
02 Dec - 03:13:33 10° WSW 03:35:46 54° S 03:51:43 10° ESE visible
02 Dec - 05:39:49 10° W 05:59:06 44° SSW 06:11:14 10° SE visible
02 Dec - 08:08:57 10° W 08:19:10 19° SW 08:26:35 10° S daylight
02 Dec - 22:52:48 10° S 23:08:44 27° SE 23:25:23 10° E visible
03 Dec - 01:10:59 10° SW 01:32:06 48° SSE 01:50:44 10° E visible
03 Dec - 03:34:35 10° WSW 03:56:46 55° S 04:12:28 10° ESE visible
03 Dec - 06:01:18 10° W 06:19:39 40° SSW 06:31:24 10° SSE visible
03 Dec - 08:32:17 10° W 08:39:05 14° SW 08:44:35 10° SSW daylight
03 Dec - 23:11:47 10° SSW 23:29:09 33° SE 23:47:22 10° E visible
04 Dec - 01:31:26 10° SW 01:53:04 52° SSE 02:11:48 10° E visible
04 Dec - 03:55:44 10° WSW 04:17:44 53° S 04:33:07 10° ESE visible
04 Dec - 06:22:57 10° W 06:40:03 34° SW 06:51:20 10° SSE visible
04 Dec - 21:18:47 10° SSE 21:28:08 15° SE 21:38:20 10° E visible
04 Dec - 23:31:18 10° SSW 23:49:41 38° SSE 00:09:00 10° E visible
05 Dec - 01:52:06 10° WSW 02:14:04 54° S 02:32:46 10° ESE visible
05 Dec - 04:16:59 10° W 04:38:37 51° SSW 04:53:39 10° SE visible
05 Dec - 06:44:48 10° W 07:00:18 29° SW 07:10:57 10° S visible
05 Dec - 21:35:40 10° S 21:48:09 21° SE 22:02:21 10° E visible
05 Dec - 23:51:11 10° SW 00:10:22 44° SSE 00:30:24 10° E visible
06 Dec - 02:12:56 10° WSW 02:35:08 56° S 02:53:40 10° ESE visible
06 Dec - 04:38:19 10° W 04:59:24 47° SSW 05:14:02 10° SE visible
06 Dec - 07:07:03 10° W 07:20:24 23° SW 07:30:04 10° S visible
06 Dec - 21:53:57 10° S 22:08:18 26° SE 22:25:04 10° E visible
07 Dec - 00:11:22 10° SW 00:31:10 48° SSE 00:51:39 10° E visible
07 Dec - 02:33:54 10° WSW 02:56:11 56° S 03:14:29 10° ESE visible
07 Dec - 04:59:45 10° W 05:20:01 42° SSW 05:34:13 10° SE visible
07 Dec - 07:30:00 10° W 07:40:21 17° SW 07:48:26 10° SSW visible
07 Dec - 22:13:00 10° SSW 22:28:34 32° SE 22:47:09 10° E visible
08 Dec - 00:31:47 10° SW 00:52:04 52° SSE 01:12:48 10° E visible
08 Dec - 02:54:58 10° WSW 03:17:12 55° S 03:35:12 10° ESE visible
08 Dec - 05:21:20 10° W 05:40:30 37° SW 05:54:10 10° SSE visible
08 Dec - 07:54:52 10° WSW 08:00:10 12° WSW 08:04:51 10° SW visible
08 Dec - 20:20:58 10° SSE 20:28:18 14° ESE 20:36:36 10° E visible
08 Dec - 22:32:32 10° SSW 22:48:59 38° SE 23:08:52 10° E visible
09 Dec - 00:52:23 10° WSW 01:13:04 55° S 01:33:52 10° E visible
09 Dec - 03:16:09 10° W 03:38:09 52° SSW 03:55:46 10° SE visible
09 Dec - 05:43:07 10° W 06:00:50 31° SW 06:13:47 10° SSE visible
09 Dec - 20:37:40 10° SSE 20:48:12 19° SE 21:01:01 10° E visible
09 Dec - 22:52:25 10° SW 23:09:34 43° SSE 23:30:22 10° E visible
